sat.trackr.live / text

‹ back to catalog

QIANFAN-86

NORAD 63172 · 2025-046P

PAYLOAD ACTIVE UNKNOWN

§ Identity

Operator
Country
PRC
Launch date
2025-03-11
Launch site
WSC
Launch vehicle
Mass (kg)
RCS (m²)

External: N2YO · Heavens-Above · Gunter

§ Orbital elements

Epoch: 2026-09-22T21:12:12.837024Z

Period
106.59 min
Inclination
88.9643°
Eccentricity
0.0012196
Mean motion
13.51026393 rev/d
Perigee alt
1,059.4 km
Apogee alt
1,077.6 km
Semi-major
7,446.6 km
B*
1.3668e-4
RAAN
290.2843°
Arg perigee
39.6747°
Mean anomaly
320.5294°
Rev number
8,591

§ Raw data

QIANFAN-861 63172U 25046P   26265.88348191  .00000100  00000+0  13668-3 0  99962 63172  88.9643 290.2843 0012196  39.6747 320.5294 13.51026393 85913

JSON: /api/v1/satellites/63172 · /tle

For live sub-satellite position, see the globe view (requires WebGL).

§ Visibility from observer

Set your observer location to see the next 7 days of passes ≥ 10°. The values pass through the URL so the page stays shareable.

No JS? Fill the form by hand. The geolocation button needs JavaScript.